This demonstration page uses our WeatherBlox Daily Observations layout. Learn more.

Left ArrowRight Arrow

39.29038, -76.61219

Hourly Observations for January 18, 2017

Temp ( °F °C ) Dew Point ( °F °C ) Humidity (%) Winds ( mph kmh ) Pressure ( in mb ) Visibility ( mi km ) Precip ( " mm )
12:54 am 00:54 undefined 46 7.8 43 6.1 89 89 undefined N/A 29.88 1012 N/A 0.00 0.00
1:54 am 01:54 undefined 46 7.8 43 6.1 89 89 undefined N/A 29.89 1012 N/A 0.00 0.00
2:54 am 02:54 undefined 46 7.8 44 6.7 93 93 undefined N/A 29.89 1012 N/A 0.00 0.00
3:54 am 03:54 undefined 46 7.8 44 6.7 93 93 undefined N/A 29.89 1012 N/A 0.00 0.00
4:54 am 04:54 undefined 46 7.8 43 6.1 89 89 undefined N/A 29.88 1012 N/A 0.00 0.00
5:54 am 05:54 undefined 47 8.3 43 6.1 86 86 undefined N/A 29.90 1012 N/A 0.00 0.00
6:54 am 06:54 undefined 46 7.8 41 5 83 83 undefined N/A 29.91 1013 N/A 0.00 0.00
7:54 am 07:54 undefined 50 10 43 6.1 77 77 undefined N/A 29.90 1013 N/A 0.00 0.00
8:54 am 08:54 undefined 52 11.1 44 6.7 75 75 undefined N/A 29.94 1014 N/A 0.00 0.00
9:54 am 09:54 undefined 52 11.1 44 6.7 75 75 undefined N/A 29.94 1014 N/A 0.00 0.00
10:54 am 10:54 undefined 55 12.8 43 6.1 64 64 undefined N/A 29.95 1014 N/A 0.00 0.00
11:54 am 11:54 undefined 54 12.2 41 5 62 62 undefined N/A 29.93 1014 N/A 0.00 0.00
12:54 pm 12:54 undefined 55 12.8 40 4.4 57 57 undefined N/A 29.93 1014 N/A 0.00 0.00
1:54 pm 13:54 undefined 56 13.3 39 3.9 53 53 undefined N/A 29.94 1014 N/A 0.00 0.00
2:54 pm 14:54 undefined 56 13.3 38 3.3 51 51 undefined N/A 29.95 1014 N/A 0.00 0.00
3:54 pm 15:54 undefined 56 13.3 38 3.3 51 51 undefined N/A 29.96 1015 N/A 0.00 0.00
4:54 pm 16:54 undefined 54 12.2 36 2.2 51 51 undefined N/A 29.99 1016 N/A 0.00 0.00
5:54 pm 17:54 undefined 53 11.7 36 2.2 52 52 undefined N/A 30.02 1017 N/A 0.00 0.00
6:54 pm 18:54 undefined 52 11.1 35 1.7 53 53 undefined N/A 30.04 1017 N/A 0.00 0.00
7:54 pm 19:54 undefined 51 10.6 35 1.7 54 54 undefined N/A 30.06 1018 N/A 0.00 0.00
8:54 pm 20:54 undefined 50 10 35 1.7 57 57 undefined N/A 30.07 1018 N/A 0.00 0.00
9:54 pm 21:54 undefined 49 9.4 35 1.7 59 59 undefined N/A 30.06 1018 N/A 0.00 0.00
10:54 pm 22:54 undefined 49 9.4 35 1.7 59 59 undefined N/A 30.07 1018 N/A 0.00 0.00
11:54 pm 23:54 undefined 48 8.9 35 1.7 61 61 undefined N/A 30.07 1018 N/A 0.00 0.00

Powered by AerisWeather